Regional Weather Roundup
Issued by NWS

Home | Current Version | Previous Version | Text Only | Print | Product List | Glossary On
Versions: 1 2 3 4 5 6 7 8 9 10 11 12 13 14 15 16 17 18 19 20 21 22 23 24 25 26 27 28
000
ASUS46 KSEW 210910
RWRWA

WASHINGTON REGIONAL WEATHER ROUNDUP
NATIONAL WEATHER SERVICE SEATTLE WA
200 AM PDT THU SEP 21 2017

NOTE:"FAIR" INDICATES FEW OR NO CLOUDS BELOW 12,000 FEET WITH NO
SIGNIFICANT WEATHER AND/OR OBSTRUCTIONS TO VISIBILITY.

WAZ507-509-555>559-211000-
SEATTLE, TACOMA, EVERETT, AND VICINITY

CITY           SKY/WX    TMP DP  RH WIND       PRES   REMARKS
EVERETT        CLOUDY    50  47  89 SE7       29.85S
BOEING FIELD   CLOUDY    51  50  96 SE8       29.85S
RENTON         MOCLDY    51  49  92 SE5       29.85S
SEATAC AIRPORT MOCLDY    50  47  89 SE7       29.85S
JBLM-MCCHORD   MOCLDY    47  47 100 CALM      29.86R
PUYALLUP       MOCLDY    48  48 100 CALM      29.86S
BREMERTON      CLOUDY    49  48  97 SW5       29.85S
JBLM-FT LEWIS  PTCLDY    48  48 100 SE3       29.85S
TACOMA NARROWS MOCLDY    49  49 100 S6        29.85S
$$

WAZ001-503-506-510-514-515-211000-
NORTH INTERIOR

CITY           SKY/WX    TMP DP  RH WIND       PRES   REMARKS
BELLINGHAM     CLOUDY    54  46  74 S6        29.84R
FRIDAY HARBOR  CLOUDY    49  48  97 S3        29.84R
EASTSOUND      CLOUDY    54  48  82 S6        29.83R
PORT ANGELES   MOCLDY    49  42  77 W7        29.84R
EDIZ HOOK      FAIR      47  44  88 CALM      29.84R
PORT TOWNSEND  CLOUDY    46  46 100 E3        29.85R
NAS WHIDBEY    CLOUDY    53  47  79 E5        29.88R
ARLINGTON      CLOUDY    48  47  96 CALM      29.86R
BURLINGTON     CLOUDY    50  48  93 CALM      29.85R
$$

WAZ020-022-039-040-504-511-512-211000-
SOUTHWEST INTERIOR

CITY           SKY/WX    TMP DP  RH WIND       PRES   REMARKS
SHELTON        MOCLDY    48  46  93 CALM      29.83R
OLYMPIA        MOCLDY    48  47  96 CALM      29.85S
CHEHALIS       FAIR      50  50 100 SW3       29.87S
KELSO          CLOUDY    50  48  93 CALM      29.89R
VANCOUVER      CLOUDY    51  51 100 CALM      29.89R
SCAPPOOSE, OR  PTCLDY    44  43  96 CALM      29.88R
PORTLAND, OR   CLOUDY    50  49  96 S3        29.90R
$$

WAZ021-516-517-211000-
WASHINGTON COAST

CITY           SKY/WX    TMP DP  RH WIND       PRES   REMARKS
FORKS          FAIR      45  43  93 E3        29.85R
HOQUIAM        PTCLDY    48  47  96 CALM      29.86R
ASTORIA, OR    MOCLDY    49  46  90 SE5       29.86R
$$

WAZ019-023-024-040-567>569-211000-
CASCADE MOUNTAINS AND COLUMBIA GORGE

CITY           SKY/WX    TMP DP  RH WIND       PRES   REMARKS
STAMPEDE PASS  NOT AVBL
TROUTDALE, OR  CLOUDY    50  48  93 SW3       29.90R
HOOD RIVER, OR NOT AVBL
THE DALLES, OR CLEAR     50  42  74 W7        29.83R
$$

WAZ026-027-041>044-520-521-211000-
EAST SLOPES

CITY           SKY/WX    TMP DP  RH WIND       PRES   REMARKS
OMAK           LGT RAIN  48  47  96 NW7       29.78R
WENATCHEE      MOCLDY    49  36  61 N7        29.76R
ELLENSBURG     MOCLDY    47  37  68 NW10      29.77R
YAKIMA         PTCLDY    40  34  79 NW3       29.78R
SUNNYSIDE ARPT SUNNY     36  35  96 E3        29.80R
YAKIMA TC      FAIR      44  35  70 S6        29.76R
$$

WAZ028-034-035-211000-
COLUMBIA BASIN

CITY           SKY/WX    TMP DP  RH WIND       PRES   REMARKS
EPHRATA        MOCLDY    41  35  79 N5        29.76R
MOSES LAKE     MOCLDY    37  35  92 N6        29.77R
PASCO          CLEAR     43  40  89 CALM      29.80R
RICHLAND ARPT  SUNNY     44  40  85 CALM      29.79R
HERMISTON, OR  PTCLDY    48  41  76 SW9       29.81R
$$

WAZ036>038-211000-
NORTHEAST WASHINGTON

CITY           SKY/WX    TMP DP  RH WIND       PRES   REMARKS
SPOKANE GEIGER CLOUDY    39  39 100 S3        29.77R
SPOKANE FELTS  MOCLDY    44  43  96 CALM      29.78R
FAIRCHILD AFB  FOG       36  36 100 CALM      29.76R VSB 1
COEURDALENE,ID CLOUDY    42  41  96 CALM      29.78R
DEER PARK      NOT AVBL
$$

WAZ029>033-211000-
SOUTHEAST WASHINGTON

CITY           SKY/WX    TMP DP  RH WIND       PRES   REMARKS
PULLMAN        CLOUDY    45  42  89 CALM      29.80R
LEWISTON, ID   PTCLDY    45  42  89 CALM      29.79R
WALLA WALLA    CLOUDY    50  42  74 S9        29.81R
PENDLETON, OR  CLOUDY    48  39  71 SW7       29.80R
$$




USA.gov is the U.S. government's official web portal to all federal, state and local government web resources and services.